contact:dominique.lefevre@mio.osupytheas.fr, maurice.libes@osupytheas.fr
Project:EMSO Ligure-ouest http://www.emso-fr.org/EMSO-France
Sensor Aquadopp, line 04 Serial AQD8517 
DOI : "https://doi.org/10.17882/74513; https://doi.org/10.17882/83244" 
Title:EMSO Ligure Ouest : Data ligne ALBATROSS capteur AQUADOPP - deploiement 2021
Id,Date,Profondeur,Latitude,Longitude,X_East,Y_North,Z_Up,Amplitude_X,Amplitude_Y,Amplitude_Z,Batterie,SoundSpeed,Heading,Pitch,Roll,Pressure,Temperature,Speed,Direction
, , m, degrees North, degrees East, m.s-1, m.s-1,m.s-1, 1, 1, 1, Volt, m.s-1, degree, degree, degree, dbar, degree_C, m.s-1, degree
04,2021-11-30T21:30:00,1000.0,42.79,6.0312,-0.001,-0.041,0.005,51.0,53.0,50.0,12.7,1504.8,282.1,-0.4,-0.4,967.699,13.32,0.041,181.4
04,2021-11-30T22:00:00,1000.0,42.79,6.0312,0.013,-0.044,0.002,52.0,53.0,51.0,12.7,1504.8,288.8,-0.4,-0.4,967.682,13.32,0.045,163.5
04,2021-11-30T22:30:00,1000.0,42.79,6.0312,0.0,-0.033,0.012,53.0,54.0,50.0,12.6,1504.8,285.8,-0.4,-0.4,967.617,13.31,0.033,180.0
04,2021-11-30T23:00:00,1000.0,42.79,6.0312,-0.001,-0.026,0.012,52.0,54.0,50.0,12.7,1504.8,285.3,-0.4,-0.4,967.657,13.31,0.026,182.2
04,2021-11-30T23:30:00,1000.0,42.79,6.0312,-0.008,-0.026,0.017,53.0,54.0,51.0,12.7,1504.7,284.1,-0.4,-0.4,967.647,13.3,0.027,197.1
04,2021-12-01T00:00:00,1000.0,42.79,6.0312,-0.005,-0.03,-0.013,54.0,54.0,52.0,12.7,1504.8,284.0,-0.4,-0.4,967.645,13.31,0.03,189.5
04,2021-12-01T00:30:00,1000.0,42.79,6.0312,0.013,-0.035,-0.006,51.0,54.0,49.0,12.7,1504.8,282.2,-0.4,-0.4,967.642,13.32,0.037,159.6
04,2021-12-01T01:00:00,1000.0,42.79,6.0312,0.019,-0.041,-0.008,53.0,53.0,50.0,12.7,1504.8,281.6,-0.4,-0.4,967.638,13.32,0.045,155.1
04,2021-12-01T01:30:00,1000.0,42.79,6.0312,0.014,-0.051,-0.002,51.0,55.0,49.0,12.7,1504.8,280.2,-0.4,-0.4,967.689,13.32,0.052,164.7
04,2021-12-01T02:00:00,1000.0,42.79,6.0312,0.006,-0.053,-0.005,51.0,54.0,51.0,12.7,1504.8,275.4,-0.4,-0.4,967.717,13.33,0.053,173.5
04,2021-12-01T02:30:00,1000.0,42.79,6.0312,-0.006,-0.048,0.003,50.0,53.0,51.0,12.7,1504.9,279.8,-0.4,-0.4,967.736,13.34,0.048,187.1
04,2021-12-01T03:00:00,1000.0,42.79,6.0312,0.003,-0.057,0.004,53.0,56.0,52.0,12.7,1504.9,284.5,-0.4,-0.4,967.713,13.35,0.057,177.0
04,2021-12-01T03:30:00,1000.0,42.79,6.0312,-0.022,-0.067,0.0,51.0,53.0,51.0,12.7,1504.9,287.4,-0.4,-0.4,967.78,13.35,0.07,198.2
04,2021-12-01T04:00:00,1000.0,42.79,6.0312,-0.024,-0.054,0.005,50.0,53.0,50.0,12.7,1504.9,283.8,-0.4,-0.4,967.782,13.34,0.059,204.0
04,2021-12-01T04:30:00,1000.0,42.79,6.0312,-0.009,-0.057,-0.012,51.0,52.0,50.0,12.7,1504.9,288.2,-0.4,-0.4,967.777,13.34,0.057,189.0
04,2021-12-01T05:00:00,1000.0,42.79,6.0312,-0.018,-0.059,0.008,50.0,53.0,49.0,12.7,1504.9,294.8,-0.3,-0.4,967.815,13.34,0.061,197.0
04,2021-12-01T05:30:00,1000.0,42.79,6.0312,-0.02,-0.052,0.006,52.0,53.0,50.0,12.7,1504.8,300.0,-0.3,-0.4,967.765,13.33,0.055,201.0
04,2021-12-01T06:00:00,1000.0,42.79,6.0312,-0.014,-0.05,0.007,52.0,53.0,49.0,12.7,1504.8,304.3,-0.3,-0.4,967.792,13.33,0.051,195.6
04,2021-12-01T06:30:00,1000.0,42.79,6.0312,-0.016,-0.058,-0.001,51.0,55.0,49.0,12.7,1504.8,302.7,-0.3,-0.4,967.783,13.32,0.06,195.4
04,2021-12-01T07:00:00,1000.0,42.79,6.0312,-0.016,-0.05,0.008,51.0,52.0,51.0,12.7,1504.8,307.0,-0.3,-0.4,967.78,13.31,0.052,197.7
04,2021-12-01T07:30:00,1000.0,42.79,6.0312,-0.016,-0.039,-0.002,51.0,54.0,51.0,12.7,1504.8,307.3,-0.3,-0.4,967.782,13.31,0.042,202.3
04,2021-12-01T08:00:00,1000.0,42.79,6.0312,-0.007,-0.038,0.013,52.0,54.0,54.0,12.7,1504.8,305.5,-0.3,-0.5,967.73,13.32,0.038,190.4
04,2021-12-01T08:30:00,1000.0,42.79,6.0312,-0.014,-0.053,0.001,51.0,54.0,51.0,12.7,1504.8,297.0,-0.4,-0.5,967.735,13.32,0.054,194.8
04,2021-12-01T09:00:00,1000.0,42.79,6.0312,0.0,-0.044,0.004,51.0,54.0,52.0,12.7,1504.8,292.3,-0.4,-0.5,967.704,13.32,0.044,180.0
04,2021-12-01T09:30:00,1000.0,42.79,6.0312,-0.014,-0.041,0.007,51.0,54.0,52.0,12.7,1504.8,296.3,-0.4,-0.5,967.696,13.33,0.043,198.9
04,2021-12-01T10:30:00,1000.0,42.79,6.0312,0.003,-0.045,0.012,52.0,54.0,51.0,12.7,1504.9,293.7,-0.4,-0.6,967.71,13.34,0.045,176.2
04,2021-12-01T11:00:00,1000.0,42.79,6.0312,-0.011,-0.051,0.015,51.0,53.0,52.0,12.6,1504.9,297.1,-0.4,-0.6,967.66,13.34,0.052,192.2
04,2021-12-01T11:30:00,1000.0,42.79,6.0312,-0.019,-0.044,-0.01,51.0,52.0,52.0,12.7,1504.9,300.5,-0.4,-0.6,967.686,13.34,0.047,203.4
04,2021-12-01T12:00:00,1000.0,42.79,6.0312,-0.025,-0.05,0.0,52.0,53.0,50.0,12.7,1504.8,298.8,-0.5,-0.6,967.652,13.33,0.055,206.6
04,2021-12-01T12:30:00,1000.0,42.79,6.0312,-0.02,-0.052,0.006,51.0,53.0,50.0,12.7,1504.8,299.1,-0.5,-0.6,967.671,13.33,0.055,201.0
04,2021-12-01T13:00:00,1000.0,42.79,6.0312,-0.009,-0.03,-0.011,50.0,52.0,51.0,12.7,1504.8,304.0,-0.4,-0.6,967.662,13.33,0.031,196.7
04,2021-12-01T13:30:00,1000.0,42.79,6.0312,-0.011,-0.048,0.0,51.0,53.0,50.0,12.7,1504.9,304.8,-0.5,-0.6,967.718,13.34,0.049,192.9
04,2021-12-01T14:00:00,1000.0,42.79,6.0312,-0.017,-0.045,0.01,52.0,53.0,50.0,12.7,1504.9,307.7,-0.5,-0.5,967.714,13.36,0.048,200.7
04,2021-12-01T14:30:00,1000.0,42.79,6.0312,-0.028,-0.048,0.014,52.0,54.0,51.0,12.7,1504.9,306.5,-0.5,-0.6,967.766,13.36,0.055,210.3
04,2021-12-01T15:00:00,1000.0,42.79,6.0312,-0.024,-0.057,0.011,52.0,55.0,53.0,12.7,1504.9,307.0,-0.5,-0.5,967.771,13.36,0.061,202.8
04,2021-12-01T15:30:00,1000.0,42.79,6.0312,-0.021,-0.043,0.001,51.0,54.0,50.0,12.7,1504.9,308.3,-0.5,-0.5,967.745,13.35,0.047,206.0
04,2021-12-01T16:00:00,1000.0,42.79,6.0312,-0.014,-0.03,-0.001,51.0,53.0,52.0,12.7,1504.9,311.6,-0.5,-0.5,967.825,13.35,0.033,205.0
04,2021-12-01T16:30:00,1000.0,42.79,6.0312,-0.03,-0.04,0.018,51.0,52.0,49.0,12.7,1504.9,316.7,-0.4,-0.5,967.817,13.34,0.05,216.9
04,2021-12-01T17:00:00,1000.0,42.79,6.0312,-0.024,-0.034,0.003,52.0,54.0,49.0,12.7,1504.9,323.0,-0.4,-0.5,967.79,13.34,0.041,215.2
04,2021-12-01T17:30:00,1000.0,42.79,6.0312,-0.023,-0.028,-0.003,50.0,54.0,50.0,12.7,1504.9,322.8,-0.4,-0.5,967.818,13.34,0.036,219.4
04,2021-12-01T18:00:00,1000.0,42.79,6.0312,-0.005,-0.036,0.012,51.0,52.0,49.0,12.7,1504.9,327.9,-0.4,-0.5,967.75,13.34,0.036,187.9
04,2021-12-01T18:30:00,1000.0,42.79,6.0312,-0.012,-0.041,0.002,51.0,51.0,50.0,12.7,1504.9,325.6,-0.4,-0.4,967.768,13.34,0.042,196.3
04,2021-12-01T19:00:00,1000.0,42.79,6.0312,-0.008,-0.047,0.009,51.0,51.0,50.0,12.7,1504.9,325.9,-0.4,-0.5,967.766,13.34,0.047,189.7
04,2021-12-01T19:30:00,1000.0,42.79,6.0312,-0.017,-0.03,-0.006,50.0,54.0,51.0,12.7,1504.9,330.2,-0.4,-0.4,967.747,13.34,0.034,209.5
04,2021-12-01T20:00:00,1000.0,42.79,6.0312,-0.023,-0.038,0.011,51.0,53.0,48.0,12.7,1504.8,330.6,-0.4,-0.4,967.704,13.33,0.044,211.2
04,2021-12-01T20:30:00,1000.0,42.79,6.0312,-0.008,-0.039,0.006,53.0,53.0,50.0,12.6,1504.8,339.3,-0.3,-0.4,967.667,13.33,0.039,191.6
04,2021-12-01T21:00:00,1000.0,42.79,6.0312,-0.014,-0.04,0.003,53.0,52.0,52.0,12.7,1504.8,332.1,-0.3,-0.4,967.652,13.33,0.042,199.3
